Change the Weather History Date:

Thursday, July 25, 2013

  Actual Average Record
Temperature  
Mean Temperature 82 °F -  
Max Temperature 93 °F 90 °F 97 °F (2004)
Min Temperature 73 °F 71 °F 66 °F (2007)
Cooling Degree Days 17    
Growing Degree Days 32 (Base 50)    
Moisture  
Dew Point 72 °F    
Average Humidity 74    
Maximum Humidity 90    
Minimum Humidity 53    
Precipitation  
Precipitation 0.00 in - - ()
Sea Level Pressure  
Sea Level Pressure 29.95 in    
Wind  
Wind Speed 3 mph (NW)    
Max Wind Speed 8 mph    
Max Gust Speed -    
Visibility 10 miles    
Events      
Averages and records for this station are not official NWS values.
T = Trace of Precipitation, MM = Missing Value Source: NWS Daily Summary

Daily Weather History Graph

Daily Weather History Graph

Search for Another Location

Airport or City:

Trip Planner

Search our weather history database for the weather conditions in past years. The results will help you decide how hot, cold, wet, or windy it might be!

Date:

Astronomy

Jul. 25, 2013 Rise Set
Actual Time 5:59 AM CDT 7:45 PM CDT
Civil Twilight 5:32 AM CDT 8:11 PM CDT
Nautical Twilight 5:00 AM CDT 8:43 PM CDT
Astronomical Twilight 4:26 AM CDT 9:17 PM CDT
Moon 9:46 PM CDT (7/25) 9:10 AM CDT (7/25)
Length of Visible Light 14h 38m
Length of Day
13h 45m
Waning Gibbous, 88% of the Moon is Illuminated
Jul 25
Waning Gibbous
Jul 29
Last Quarter
Aug 6
New
Aug 14
First Quarter
Aug 20
Full

Hourly Weather History & Observations

Time (CDT) Temp. Heat Index Dew Point Humidity Pressure Visibility Wind Dir Wind Speed Gust Speed Precip Events Conditions
12:53 AM 75.9 °F - 70.0 °F 82% 29.89 in 10.0 mi West 5.8 mph - N/A   Clear
1:53 AM 75.0 °F - 69.1 °F 82% 29.88 in 10.0 mi Calm Calm - N/A   Clear
2:53 AM 73.9 °F - 69.1 °F 85% 29.88 in 10.0 mi Calm Calm - N/A   Clear
3:53 AM 73.0 °F - 69.1 °F 87% 29.90 in 10.0 mi West 3.5 mph - N/A   Partly Cloudy
4:53 AM 73.0 °F - 69.1 °F 87% 29.91 in 8.0 mi WNW 4.6 mph - N/A   Clear
5:53 AM 73.0 °F - 70.0 °F 90% 29.91 in 10.0 mi Calm Calm - N/A   Mostly Cloudy
6:53 AM 73.9 °F - 70.0 °F 87% 29.93 in 10.0 mi WSW 4.6 mph - N/A   Overcast
7:08 AM 73.4 °F - 69.8 °F 88% 29.95 in 10.0 mi West 4.6 mph - N/A   Overcast
7:23 AM 73.4 °F - 69.8 °F 88% 29.95 in 10.0 mi West 4.6 mph - N/A   Overcast
7:53 AM 75.0 °F - 71.1 °F 87% 29.95 in 10.0 mi Calm Calm - N/A   Overcast
8:53 AM 75.9 °F - 72.0 °F 87% 29.96 in 9.0 mi Calm Calm - N/A   Overcast
9:53 AM 80.1 °F 83.8 °F 72.0 °F 76% 29.96 in 10.0 mi Calm Calm - 0.00 in   Mostly Cloudy
10:53 AM 84.0 °F 90.2 °F 73.0 °F 69% 29.97 in 10.0 mi Variable 3.5 mph - N/A   Partly Cloudy
11:16 AM 84.2 °F 90.9 °F 73.4 °F 70% 29.98 in 10.0 mi Variable 4.6 mph - N/A   Mostly Cloudy
11:53 AM 87.1 °F 95.4 °F 73.9 °F 65% 29.97 in 10.0 mi NW 5.8 mph - N/A   Scattered Clouds
12:53 PM 88.0 °F 95.6 °F 73.0 °F 61% 29.97 in 10.0 mi NW 5.8 mph - N/A   Mostly Cloudy
1:53 PM 90.0 °F 96.9 °F 72.0 °F 55% 29.96 in 10.0 mi WNW 6.9 mph - N/A   Clear
2:53 PM 90.0 °F 96.4 °F 71.1 °F 54% 29.96 in 10.0 mi WNW 8.1 mph - N/A   Scattered Clouds
3:53 PM 91.9 °F 101.3 °F 73.9 °F 55% 29.95 in 10.0 mi North 4.6 mph - N/A   Scattered Clouds
4:53 PM 91.0 °F 98.2 °F 72.0 °F 53% 29.94 in 10.0 mi Variable 4.6 mph - N/A   Clear
5:53 PM 90.0 °F 96.9 °F 72.0 °F 55% 29.95 in 10.0 mi North 4.6 mph - N/A   Partly Cloudy
6:53 PM 89.1 °F 97.0 °F 73.0 °F 59% 29.96 in 10.0 mi North 3.5 mph - N/A   Clear
7:53 PM 84.0 °F 91.2 °F 73.9 °F 72% 29.97 in 10.0 mi North 3.5 mph - N/A   Partly Cloudy
8:53 PM 82.9 °F 88.8 °F 73.0 °F 72% 29.98 in 10.0 mi Calm Calm - N/A   Clear
9:53 PM 81.0 °F 85.8 °F 73.0 °F 77% 30.00 in 10.0 mi North 3.5 mph - N/A   Clear
10:53 PM 80.1 °F 84.2 °F 73.0 °F 79% 30.00 in 10.0 mi North 3.5 mph - N/A   Clear
11:53 PM 79.0 °F - 73.0 °F 82% 30.01 in 10.0 mi Calm Calm - N/A   Clear